Weather History for KCIU - November, 2013

Change the Weather History Date:

Friday, November 1, 2013

  Actual Average Record
Temperature  
Mean Temperature 44 °F -  
Max Temperature 51 °F 50 °F 64 °F (1999)
Min Temperature 37 °F 31 °F 19 °F (1992)
Degree Days  
Heating Degree Days 21    
Moisture  
Dew Point 44 °F    
Average Humidity 95    
Maximum Humidity 100    
Minimum Humidity 87    
Precipitation  
Precipitation 0.57 in - - ()
Sea Level Pressure  
Sea Level Pressure 29.28 in    
Wind  
Wind Speed 10 mph (NW)    
Max Wind Speed 25 mph    
Max Gust Speed 37 mph    
Visibility 8 miles    
Events      
Averages and records for this station are not official NWS values.
T = Trace of Precipitation, MM = Missing Value Source: NWS Daily Summary

Daily Weather History Graph

Daily Weather History Graph

Search for Another Location

Airport or City:

Trip Planner

Search our weather history database for the weather conditions in past years. The results will help you decide how hot, cold, wet, or windy it might be!

Date:

Astronomy

Nov. 01, 2013 Rise Set
Actual Time 8:19 AM EDT 6:22 PM EDT
Civil Twilight 7:47 AM EDT 6:54 PM EDT
Nautical Twilight 7:12 AM EDT 7:29 PM EDT
Astronomical Twilight 6:37 AM EDT 8:04 PM EDT
Moon 6:04 AM EDT (11/1) 5:19 PM EDT (11/1)
Length of Visible Light 11h 06m
Length of Day
10h 03m
Waning Crescent, 4% of the Moon is Illuminated
Nov 1
Waning Crescent
Nov 3
New
Nov 10
First Quarter
Nov 17
Full
Nov 25
Last Quarter

Hourly Weather History & Observations

Time (EDT) Temp. Windchill Dew Point Humidity Pressure Visibility Wind Dir Wind Speed Gust Speed Precip Events Conditions
12:15 AM 50.0 °F - 50.0 °F 100% 29.01 in 0.8 mi NNE 5.8 mph - N/A   Overcast
12:35 AM 50.0 °F - 50.0 °F 100% 28.98 in 0.8 mi NE 8.1 mph - 0.01 in   Overcast
12:55 AM 50.0 °F - 50.0 °F 100% 28.97 in 1.2 mi NNE 4.6 mph - 0.01 in   Overcast
1:15 AM 51.8 °F - 51.8 °F 100% 28.95 in 1.0 mi North 3.5 mph - 0.02 in   Overcast
1:35 AM 51.8 °F - 51.8 °F 100% 28.96 in 1.2 mi NW 3.5 mph - 0.04 in   Overcast
1:55 AM 51.8 °F - 51.8 °F 100% 28.96 in 1.0 mi WNW 3.5 mph - 0.05 in   Overcast
2:15 AM 51.8 °F - 51.8 °F 100% 28.94 in 1.0 mi NW 5.8 mph - 0.03 in   Overcast
2:35 AM 51.8 °F - 51.8 °F 100% 28.91 in 3.0 mi NNW 10.4 mph - 0.06 in   Overcast
2:55 AM 51.8 °F - 51.8 °F 100% 28.90 in 3.0 mi NW 6.9 mph - 0.07 in   Overcast
3:15 AM 51.8 °F - 51.8 °F 100% 28.89 in 2.5 mi NW 5.8 mph - N/A   Overcast
3:35 AM 50.0 °F - 50.0 °F 100% 28.90 in 2.5 mi WNW 8.1 mph - 0.03 in   Overcast
3:55 AM 50.0 °F - 50.0 °F 100% 28.89 in 3.0 mi West 6.9 mph - 0.07 in   Overcast
4:15 AM 50.0 °F - 48.2 °F 94% 28.89 in 5.0 mi WNW 8.1 mph - 0.08 in   Overcast
4:35 AM 50.0 °F - 48.2 °F 94% 28.88 in 9.0 mi WNW 8.1 mph - 0.13 in   Overcast
4:55 AM 50.0 °F - 48.2 °F 94% 28.89 in 8.0 mi WNW 9.2 mph - 0.16 in   Overcast
5:15 AM 50.0 °F - 48.2 °F 94% 28.89 in 5.0 mi NW 16.1 mph 19.6 mph 0.03 in   Overcast
5:35 AM 50.0 °F - 50.0 °F 100% 28.90 in 4.0 mi NW 15.0 mph 25.3 mph 0.06 in   Overcast
5:55 AM 48.2 °F - 48.2 °F 100% 28.91 in 5.0 mi NNW 21.9 mph 27.6 mph 0.11 in   Overcast
6:15 AM 48.2 °F - 46.4 °F 93% 28.93 in 5.0 mi NW 20.7 mph 29.9 mph 0.03 in   Overcast
6:35 AM 48.2 °F - 48.2 °F 100% 28.94 in 5.0 mi NW 25.3 mph 29.9 mph 0.04 in   Overcast
6:55 AM 46.4 °F 38.3 °F 46.4 °F 100% 28.98 in 4.0 mi NW 23.0 mph 35.7 mph 0.05 in   Overcast
7:15 AM 46.4 °F 38.5 °F 44.6 °F 93% 29.00 in 10.0 mi NW 21.9 mph 36.8 mph 0.01 in   Overcast
7:35 AM 46.4 °F 38.3 °F 46.4 °F 100% 29.02 in 10.0 mi NW 23.0 mph 28.8 mph 0.03 in   Overcast
7:55 AM 46.4 °F 37.9 °F 46.4 °F 100% 29.05 in 10.0 mi NW 25.3 mph 35.7 mph 0.04 in   Overcast
8:15 AM 46.4 °F 38.1 °F 46.4 °F 100% 29.08 in 10.0 mi NW 24.2 mph 35.7 mph N/A   Overcast
8:35 AM 44.6 °F 36.1 °F 44.6 °F 100% 29.11 in 10.0 mi WNW 21.9 mph 27.6 mph N/A   Overcast
8:55 AM 44.6 °F 36.1 °F 44.6 °F 100% 29.14 in 10.0 mi WNW 21.9 mph 29.9 mph N/A   Overcast
9:15 AM 44.6 °F 37.8 °F 44.6 °F 100% 29.17 in 10.0 mi WNW 15.0 mph - 0.01 in   Overcast
9:35 AM 44.6 °F 36.4 °F 44.6 °F 100% 29.19 in 10.0 mi WNW 20.7 mph 28.8 mph 0.01 in   Overcast
9:55 AM 44.6 °F 37.2 °F 42.8 °F 93% 29.22 in 5.0 mi WNW 17.3 mph 23.0 mph 0.01 in   Overcast
10:15 AM 42.8 °F 35.1 °F 42.8 °F 100% 29.23 in 8.0 mi WNW 16.1 mph 25.3 mph N/A   Overcast
10:35 AM 42.8 °F 34.5 °F 42.8 °F 100% 29.25 in 10.0 mi WNW 18.4 mph - N/A   Overcast
10:55 AM 44.6 °F 38.4 °F 42.8 °F 93% 29.27 in 10.0 mi WNW 12.7 mph 17.3 mph N/A   Overcast
11:15 AM 44.6 °F 38.1 °F 42.8 °F 93% 29.28 in 10.0 mi WNW 13.8 mph 18.4 mph N/A   Overcast
11:35 AM 44.6 °F 38.4 °F 42.8 °F 93% 29.31 in 10.0 mi WNW 12.7 mph 17.3 mph N/A   Overcast
11:55 AM 44.6 °F 38.1 °F 42.8 °F 93% 29.32 in 10.0 mi NW 13.8 mph 18.4 mph N/A   Overcast
12:15 PM 44.6 °F 38.1 °F 42.8 °F 93% 29.33 in 10.0 mi NW 13.8 mph - N/A   Overcast
12:35 PM 44.6 °F 38.4 °F 42.8 °F 93% 29.35 in 10.0 mi NW 12.7 mph 18.4 mph N/A   Overcast
12:55 PM 44.6 °F 37.4 °F 42.8 °F 93% 29.35 in 10.0 mi NW 16.1 mph - N/A   Overcast
1:15 PM 44.6 °F 37.8 °F 42.8 °F 93% 29.37 in 10.0 mi NW 15.0 mph - N/A   Overcast
1:35 PM 44.6 °F 38.4 °F 41.0 °F 87% 29.39 in 10.0 mi WNW 12.7 mph 20.7 mph N/A   Overcast
1:55 PM 44.6 °F 38.4 °F 41.0 °F 87% 29.40 in 10.0 mi NW 12.7 mph - N/A   Overcast
2:15 PM 42.8 °F 37.0 °F 41.0 °F 93% 29.41 in 10.0 mi WNW 10.4 mph - N/A   Overcast
2:35 PM 42.8 °F 37.0 °F 41.0 °F 93% 29.42 in 10.0 mi WNW 10.4 mph - N/A   Overcast
2:55 PM 42.8 °F 37.5 °F 41.0 °F 93% 29.43 in 10.0 mi WNW 9.2 mph - N/A   Overcast
3:15 PM 42.8 °F 37.0 °F 41.0 °F 93% 29.44 in 10.0 mi NW 10.4 mph - N/A   Overcast
3:35 PM 42.8 °F 36.6 °F 41.0 °F 93% 29.45 in 10.0 mi NW 11.5 mph - N/A   Overcast
3:55 PM 42.8 °F 37.5 °F 41.0 °F 93% 29.46 in 10.0 mi WNW 9.2 mph - N/A   Overcast
4:15 PM 42.8 °F 37.5 °F 41.0 °F 93% 29.47 in 10.0 mi WNW 9.2 mph - N/A   Overcast
4:35 PM 42.8 °F 36.6 °F 41.0 °F 93% 29.48 in 10.0 mi NW 11.5 mph - N/A   Overcast
4:55 PM 42.8 °F 38.6 °F 41.0 °F 93% 29.49 in 10.0 mi WNW 6.9 mph - N/A   Overcast
5:15 PM 42.8 °F 37.5 °F 39.2 °F 87% 29.50 in 10.0 mi NW 9.2 mph - N/A   Overcast
5:35 PM 42.8 °F 39.3 °F 39.2 °F 87% 29.52 in 10.0 mi NW 5.8 mph - N/A   Overcast
5:55 PM 42.8 °F 39.3 °F 39.2 °F 87% 29.53 in 10.0 mi WNW 5.8 mph - N/A   Overcast
6:15 PM 41.0 °F 38.0 °F 39.2 °F 93% 29.54 in 10.0 mi West 4.6 mph - N/A   Overcast
6:35 PM 41.0 °F 38.0 °F 39.2 °F 93% 29.55 in 10.0 mi West 4.6 mph - N/A   Overcast
6:55 PM 41.0 °F 38.0 °F 39.2 °F 93% 29.56 in 10.0 mi West 4.6 mph - N/A   Overcast
7:15 PM 41.0 °F 37.1 °F 39.2 °F 93% 29.57 in 10.0 mi West 5.8 mph - N/A   Overcast
7:35 PM 41.0 °F 37.1 °F 39.2 °F 93% 29.58 in 10.0 mi West 5.8 mph - N/A   Overcast
7:55 PM 41.0 °F 38.0 °F 39.2 °F 93% 29.59 in 10.0 mi WNW 4.6 mph - N/A   Overcast
8:15 PM 41.0 °F 37.1 °F 39.2 °F 93% 29.60 in 10.0 mi WNW 5.8 mph - N/A   Overcast
8:35 PM 39.2 °F 35.0 °F 37.4 °F 93% 29.60 in 10.0 mi NW 5.8 mph - N/A   Overcast
8:55 PM 39.2 °F 35.0 °F 39.2 °F 100% 29.61 in 10.0 mi NW 5.8 mph - N/A   Overcast
9:15 PM 39.2 °F 35.0 °F 39.2 °F 100% 29.61 in 10.0 mi NNW 5.8 mph - N/A   Overcast
9:35 PM 39.2 °F 33.6 °F 39.2 °F 100% 29.62 in 10.0 mi North 8.1 mph - N/A   Overcast
9:55 PM 39.2 °F 34.2 °F 37.4 °F 93% 29.63 in 10.0 mi North 6.9 mph - N/A   Overcast
10:15 PM 39.2 °F 35.0 °F 37.4 °F 93% 29.63 in 10.0 mi North 5.8 mph - N/A   Overcast
10:35 PM 39.2 °F 33.0 °F 37.4 °F 93% 29.64 in 10.0 mi NNE 9.2 mph - N/A   Overcast
10:55 PM 39.2 °F 33.6 °F 35.6 °F 87% 29.65 in 10.0 mi NNE 8.1 mph - N/A   Overcast
11:15 PM 37.4 °F 32.1 °F 35.6 °F 93% 29.65 in 10.0 mi NNE 6.9 mph - N/A   Overcast
11:35 PM 37.4 °F 33.8 °F 37.4 °F 100% 29.66 in 10.0 mi NNE 4.6 mph - N/A   Overcast
11:55 PM 37.4 °F 32.1 °F 37.4 °F 100% 29.66 in 10.0 mi NNE 6.9 mph - N/A   Overcast